| time (UTC) | temp C | wind direction | speed KPH | gust KPH | rain 1hr cm | rain 24hr cm | rain mn cm | humidity % | barometer mb |
| 20260503225503 | 12 | 171 | 0.0 | 3.2 | 0.00 | 0.00 | 0.00 | 88 | 1018.5 |
| 20260503225003 | 12 | 203 | 1.6 | 3.2 | 0.00 | 0.00 | 0.00 | 88 | 1018.3 |
| 20260503224503 | 12 | 250 | 1.6 | 4.8 | 0.00 | 0.00 | 0.00 | 88 | 1018.4 |
| 20260503224003 | 12 | 262 | 3.2 | 9.7 | 0.00 | 0.00 | 0.00 | 88 | 1018.2 |
| 20260503223503 | 12 | 273 | 6.4 | 11.3 | 0.00 | 0.00 | 0.00 | 88 | 1018.4 |
| 20260503223003 | 13 | 277 | 6.4 | 11.3 | 0.00 | 0.00 | 0.00 | 87 | 1018.4 |
| 20260503222503 | 13 | 279 | 6.4 | 11.3 | 0.00 | 0.00 | 0.00 | 87 | 1018.3 |
| 20260503222218 | 13 | 281 | 4.8 | 11.3 | 0.00 | 0.00 | 0.00 | 86 | 1018.2 |
| 20260503221503 | 13 | 272 | 4.8 | 9.7 | 0.00 | 0.00 | 0.00 | 86 | 1018.2 |
| 20260503221003 | 13 | 279 | 4.8 | 11.3 | 0.00 | 0.00 | 0.00 | 86 | 1018.3 |
| 20260503220503 | 13 | 290 | 3.2 | 11.3 | 0.00 | 0.00 | 0.00 | 86 | 1018.2 |
| 20260503220003 | 13 | 279 | 3.2 | 9.7 | 0.00 | 0.00 | 0.00 | 85 | 1018.3 |
| 20260503215503 | 13 | 282 | 4.8 | 11.3 | 0.00 | 0.00 | 0.00 | 85 | 1018.2 |
| 20260503215003 | 13 | 286 | 6.4 | 12.9 | 0.00 | 0.00 | 0.00 | 85 | 1018.3 |
| 20260503214503 | 13 | 278 | 4.8 | 12.9 | 0.00 | 0.00 | 0.00 | 84 | 1018.3 |
| 20260503214003 | 13 | 269 | 4.8 | 9.7 | 0.00 | 0.00 | 0.00 | 84 | 1018.3 |
| 20260503213717 | 13 | 267 | 3.2 | 9.7 | 0.00 | 0.00 | 0.00 | 83 | 1018.3 |
| 20260503213003 | 13 | 275 | 3.2 | 6.4 | 0.00 | 0.00 | 0.00 | 82 | 1018.4 |
| 20260503212503 | 13 | 283 | 1.6 | 4.8 | 0.00 | 0.00 | 0.00 | 82 | 1018.3 |
| 20260503212003 | 14 | 291 | 1.6 | 4.8 | 0.00 | 0.00 | 0.00 | 81 | 1018.3 |
| 20260503211716 | 14 | 312 | 1.6 | 4.8 | 0.00 | 0.00 | 0.00 | 80 | 1018.2 |
| 20260503211003 | 14 | 293 | 1.6 | 4.8 | 0.00 | 0.00 | 0.00 | 80 | 1018.1 |
| 20260503210503 | 14 | 281 | 1.6 | 4.8 | 0.00 | 0.00 | 0.00 | 80 | 1018.1 |
| 20260503210003 | 14 | 283 | 1.6 | 4.8 | 0.00 | 0.00 | 0.00 | 79 | 1018.2 |
| 20260503205716 | 14 | 265 | 1.6 | 3.2 | 0.00 | 0.00 | 0.00 | 79 | 1018.1 |
| 20260503205003 | 14 | 287 | 3.2 | 6.4 | 0.00 | 0.00 | 0.00 | 79 | 1018.1 |
| 20260503204503 | 14 | 287 | 3.2 | 6.4 | 0.00 | 0.00 | 0.00 | 78 | 1018.1 |
| 20260503204003 | 14 | 254 | 1.6 | 6.4 | 0.00 | 0.00 | 0.00 | 77 | 1018.0 |
| 20260503203503 | 14 | 266 | 3.2 | 9.7 | 0.00 | 0.00 | 0.00 | 77 | 1017.7 |
| 20260503203003 | 15 | 271 | 4.8 | 9.7 | 0.00 | 0.00 | 0.00 | 77 | 1017.8 |
| 20260503202503 | 15 | 264 | 4.8 | 11.3 | 0.00 | 0.00 | 0.00 | 76 | 1017.8 |
| 20260503202003 | 15 | 272 | 6.4 | 12.9 | 0.00 | 0.00 | 0.00 | 76 | 1017.7 |
| 20260503201503 | 15 | 280 | 8.0 | 12.9 | 0.00 | 0.00 | 0.00 | 76 | 1017.5 |
| 20260503201003 | 15 | 281 | 6.4 | 12.9 | 0.00 | 0.00 | 0.00 | 75 | 1017.4 |
| 20260503200503 | 15 | 288 | 6.4 | 14.5 | 0.00 | 0.00 | 0.00 | 74 | 1017.5 |
| 20260503200217 | 15 | 289 | 8.0 | 14.5 | 0.00 | 0.00 | 0.00 | 73 | 1017.5 |
| 20260503195503 | 15 | 289 | 8.0 | 14.5 | 0.00 | 0.00 | 0.00 | 72 | 1017.5 |
| 20260503195004 | 15 | 270 | 6.4 | 14.5 | 0.00 | 0.00 | 0.00 | 71 | 1017.4 |
| 20260503194503 | 15 | 265 | 6.4 | 14.5 | 0.00 | 0.00 | 0.00 | 71 | 1017.2 |
| 20260503194003 | 15 | 264 | 6.4 | 12.9 | 0.00 | 0.00 | 0.00 | 70 | 1017.1 |
| 20260503193503 | 15 | 263 | 6.4 | 12.9 | 0.00 | 0.00 | 0.00 | 70 | 1017.1 |
| 20260503193003 | 15 | 265 | 6.4 | 12.9 | 0.00 | 0.00 | 0.00 | 70 | 1017.1 |
| 20260503192503 | 16 | 269 | 6.4 | 14.5 | 0.00 | 0.00 | 0.00 | 70 | 1017.0 |
| 20260503192003 | 16 | 268 | 6.4 | 14.5 | 0.00 | 0.00 | 0.00 | 69 | 1017.0 |
| 20260503191503 | 16 | 267 | 6.4 | 12.9 | 0.00 | 0.00 | 0.00 | 69 | 1016.9 |
| 20260503191003 | 16 | 269 | 8.0 | 14.5 | 0.00 | 0.00 | 0.00 | 69 | 1017.0 |
| 20260503190503 | 16 | 268 | 8.0 | 14.5 | 0.00 | 0.00 | 0.00 | 68 | 1016.9 |
| 20260503190003 | 16 | 269 | 8.0 | 17.7 | 0.00 | 0.00 | 0.00 | 67 | 1016.9 |
| 20260503185718 | 16 | 272 | 8.0 | 17.7 | 0.00 | 0.00 | 0.00 | 66 | 1016.9 |
| 20260503185217 | 16 | 277 | 9.7 | 17.7 | 0.00 | 0.00 | 0.00 | 65 | 1016.9 |
| 20260503184503 | 17 | 260 | 9.7 | 17.7 | 0.00 | 0.00 | 0.00 | 64 | 1016.7 |
| 20260503184216 | 17 | 257 | 8.0 | 22.5 | 0.00 | 0.00 | 0.00 | 63 | 1016.6 |
| 20260503183503 | 17 | 271 | 9.7 | 22.5 | 0.00 | 0.00 | 0.00 | 62 | 1016.7 |
| 20260503183003 | 17 | 274 | 9.7 | 20.9 | 0.00 | 0.00 | 0.00 | 62 | 1016.6 |
| 20260503182718 | 17 | 278 | 9.7 | 20.9 | 0.00 | 0.00 | 0.00 | 61 | 1016.6 |
| 20260503182216 | 17 | 274 | 11.3 | 20.9 | 0.00 | 0.00 | 0.00 | 61 | 1016.5 |
| 20260503181504 | 18 | 268 | 11.3 | 24.1 | 0.00 | 0.00 | 0.00 | 60 | 1016.5 |
| 20260503181003 | 18 | 266 | 12.9 | 24.1 | 0.00 | 0.00 | 0.00 | 59 | 1016.6 |
| 20260503180503 | 18 | 262 | 11.3 | 24.1 | 0.00 | 0.00 | 0.00 | 59 | 1016.5 |
| 20260503180003 | 18 | 264 | 9.7 | 16.1 | 0.00 | 0.00 | 0.00 | 59 | 1016.5 |
| 20260503175503 | 18 | 268 | 11.3 | 17.7 | 0.00 | 0.00 | 0.00 | 59 | 1016.5 |
| 20260503175003 | 18 | 272 | 12.9 | 22.5 | 0.00 | 0.00 | 0.00 | 60 | 1016.5 |
| 20260503174503 | 18 | 277 | 11.3 | 22.5 | 0.00 | 0.00 | 0.00 | 59 | 1016.3 |
| 20260503174003 | 19 | 268 | 11.3 | 20.9 | 0.00 | 0.00 | 0.00 | 58 | 1016.3 |
| 20260503173503 | 18 | 270 | 12.9 | 22.5 | 0.00 | 0.00 | 0.00 | 58 | 1016.4 |
| 20260503173003 | 18 | 276 | 11.3 | 22.5 | 0.00 | 0.00 | 0.00 | 58 | 1016.5 |
| 20260503172504 | 19 | 273 | 11.3 | 20.9 | 0.00 | 0.00 | 0.00 | 57 | 1016.5 |
| 20260503172003 | 19 | 283 | 12.9 | 22.5 | 0.00 | 0.00 | 0.00 | 55 | 1016.5 |
| 20260503171503 | 19 | 291 | 14.5 | 25.7 | 0.00 | 0.00 | 0.00 | 56 | 1016.4 |
| 20260503171003 | 19 | 285 | 14.5 | 25.7 | 0.00 | 0.00 | 0.00 | 56 | 1016.5 |
| 20260503170503 | 19 | 281 | 14.5 | 24.1 | 0.00 | 0.00 | 0.00 | 56 | 1016.5 |
| 20260503151003 | 21 | 289 | 11.3 | 24.1 | 0.00 | 0.00 | 0.00 | 52 | 1016.7 |
| 20260503150503 | 21 | 290 | 12.9 | 30.6 | 0.00 | 0.00 | 0.00 | 51 | 1016.6 |
| 20260503131003 | 20 | 278 | 11.3 | 22.5 | 0.00 | 0.00 | 0.00 | 57 | 1017.4 |
| 20260503130503 | 19 | 286 | 11.3 | 22.5 | 0.00 | 0.00 | 0.00 | 59 | 1017.5 |
| 20260503110503 | 19 | 255 | 6.4 | 16.1 | 0.00 | 0.00 | 0.00 | 57 | 1018.2 |
| 20260503090503 | 17 | 181 | 1.6 | 3.2 | 0.00 | 0.00 | 0.00 | 73 | 1018.4 |
| 20260503090217 | 17 | 247 | 0.0 | 3.2 | 0.00 | 0.00 | 0.00 | 74 | 1018.3 |
| 20260503081503 | 16 | 277 | 3.2 | 6.4 | 0.00 | 0.00 | 0.00 | 79 | 1018.4 |
| 20260503081003 | 16 | 274 | 4.8 | 9.7 | 0.00 | 0.00 | 0.00 | 80 | 1018.6 |
| 20260503080718 | 15 | 265 | 4.8 | 9.7 | 0.00 | 0.00 | 0.00 | 81 | 1018.7 |
| 20260503080217 | 16 | 247 | 4.8 | 9.7 | 0.00 | 0.00 | 0.00 | 81 | 1018.5 |
| 20260503072503 | 15 | 212 | 0.0 | 3.2 | 0.00 | 0.00 | 0.00 | 82 | 1018.2 |
| 20260503072003 | 15 | 254 | 1.6 | 4.8 | 0.00 | 0.00 | 0.00 | 84 | 1018.3 |
| 20260503071503 | 15 | 238 | 3.2 | 4.8 | 0.00 | 0.00 | 0.00 | 85 | 1018.4 |
| 20260503071003 | 14 | 224 | 1.6 | 4.8 | 0.00 | 0.00 | 0.00 | 86 | 1018.4 |
| 20260503070717 | 14 | 231 | 1.6 | 4.8 | 0.00 | 0.00 | 0.00 | 86 | 1018.4 |
| 20260503055003 | 13 | 180 | 0.0 | 1.6 | 0.00 | 0.00 | 0.00 | 95 | 1018.0 |
| 20260503054503 | 13 | 174 | 0.0 | 1.6 | 0.00 | 0.00 | 0.00 | 95 | 1018.0 |
| 20260503054003 | 13 | 233 | 0.0 | 1.6 | 0.00 | 0.00 | 0.00 | 95 | 1017.9 |
| 20260503053503 | 13 | 247 | 0.0 | 3.2 | 0.00 | 0.00 | 0.00 | 96 | 1017.9 |
| 20260503053218 | 13 | 256 | 0.0 | 3.2 | 0.00 | 0.00 | 0.00 | 95 | 1017.7 |
| 20260503052717 | 13 | 262 | 1.6 | 3.2 | 0.00 | 0.00 | 0.00 | 95 | 1017.8 |
| 20260503052003 | 13 | 255 | 1.6 | 3.2 | 0.00 | 0.00 | 0.00 | 95 | 1018.0 |
| 20260503051503 | 13 | 273 | 3.2 | 4.8 | 0.00 | 0.00 | 0.00 | 95 | 1018.0 |
| 20260503051217 | 13 | 284 | 3.2 | 9.7 | 0.00 | 0.00 | 0.00 | 95 | 1018.0 |
| 20260503050717 | 13 | 283 | 4.8 | 9.7 | 0.00 | 0.00 | 0.00 | 95 | 1017.9 |
| 20260503050003 | 13 | 282 | 4.8 | 9.7 | 0.00 | 0.00 | 0.00 | 95 | 1018.0 |
| 20260503045503 | 13 | 282 | 4.8 | 9.7 | 0.00 | 0.00 | 0.00 | 95 | 1018.0 |
| 20260503045003 | 13 | 278 | 4.8 | 9.7 | 0.00 | 0.00 | 0.00 | 95 | 1018.1 |
| 20260503044716 | 13 | 277 | 4.8 | 9.7 | 0.00 | 0.00 | 0.00 | 95 | 1018.0 |
| 20260503044003 | 13 | 280 | 4.8 | 9.7 | 0.00 | 0.00 | 0.00 | 95 | 1018.2 |
| 20260503043503 | 13 | 277 | 4.8 | 9.7 | 0.00 | 0.00 | 0.00 | 95 | 1018.0 |
| 20260503043003 | 13 | 285 | 4.8 | 6.4 | 0.00 | 0.00 | 0.00 | 95 | 1018.0 |
| 20260503042503 | 13 | 289 | 4.8 | 6.4 | 0.00 | 0.00 | 0.00 | 95 | 1018.0 |
| 20260503042003 | 13 | 281 | 3.2 | 6.4 | 0.00 | 0.00 | 0.00 | 95 | 1018.0 |
| 20260503041503 | 13 | 269 | 1.6 | 4.8 | 0.00 | 0.00 | 0.00 | 95 | 1018.1 |
| 20260503041003 | 13 | 274 | 1.6 | 6.4 | 0.00 | 0.00 | 0.00 | 95 | 1018.0 |
| 20260503040503 | 13 | 278 | 3.2 | 6.4 | 0.00 | 0.00 | 0.00 | 95 | 1018.0 |
| 20260503040003 | 13 | 276 | 1.6 | 4.8 | 0.00 | 0.00 | 0.00 | 95 | 1018.1 |
| 20260503035503 | 13 | 266 | 1.6 | 4.8 | 0.00 | 0.00 | 0.00 | 95 | 1018.0 |
| 20260503035003 | 13 | 265 | 3.2 | 4.8 | 0.00 | 0.00 | 0.00 | 95 | 1018.0 |
| 20260503034503 | 13 | 279 | 3.2 | 6.4 | 0.00 | 0.00 | 0.00 | 95 | 1017.8 |
| 20260503034003 | 13 | 289 | 3.2 | 6.4 | 0.00 | 0.00 | 0.00 | 94 | 1018.0 |
| 20260503033503 | 13 | 287 | 3.2 | 6.4 | 0.00 | 0.00 | 0.00 | 94 | 1018.0 |
| 20260503033003 | 13 | 273 | 3.2 | 4.8 | 0.00 | 0.00 | 0.00 | 94 | 1018.1 |
| 20260503032503 | 13 | 271 | 3.2 | 4.8 | 0.00 | 0.00 | 0.00 | 94 | 1017.9 |
| 20260503032003 | 14 | 270 | 1.6 | 4.8 | 0.00 | 0.00 | 0.00 | 94 | 1017.7 |
| 20260503031503 | 14 | 258 | 1.6 | 4.8 | 0.00 | 0.00 | 0.00 | 94 | 1018.0 |
| 20260503031003 | 14 | 252 | 1.6 | 4.8 | 0.00 | 0.00 | 0.00 | 94 | 1018.0 |
| 20260503030503 | 14 | 250 | 0.0 | 3.2 | 0.00 | 0.00 | 0.00 | 94 | 1018.1 |
| 20260503030004 | 14 | 251 | 0.0 | 3.2 | 0.00 | 0.00 | 0.00 | 94 | 1018.0 |
| 20260503025503 | 14 | 249 | 0.0 | 3.2 | 0.00 | 0.00 | 0.00 | 94 | 1018.3 |
| 20260503025003 | 14 | 201 | 1.6 | 3.2 | 0.00 | 0.00 | 0.00 | 94 | 1018.0 |
| 20260503024503 | 14 | 193 | 0.0 | 3.2 | 0.00 | 0.00 | 0.00 | 94 | 1018.1 |
| 20260503024003 | 14 | 185 | 0.0 | 3.2 | 0.00 | 0.00 | 0.00 | 94 | 1018.3 |
| 20260503023503 | 14 | 360 | 0.0 | 3.2 | 0.00 | 0.00 | 0.00 | 94 | 1018.3 |
| 20260503023003 | 14 | 282 | 0.0 | 3.2 | 0.00 | 0.00 | 0.00 | 94 | 1018.3 |
| 20260503022503 | 14 | 259 | 0.0 | 3.2 | 0.00 | 0.00 | 0.00 | 94 | 1018.4 |
| 20260503022003 | 14 | 258 | 0.0 | 3.2 | 0.00 | 0.00 | 0.00 | 94 | 1018.4 |
| 20260503021503 | 14 | 263 | 0.0 | 3.2 | 0.00 | 0.00 | 0.00 | 94 | 1018.5 |
| 20260503021003 | 14 | 235 | 0.0 | 1.6 | 0.00 | 0.00 | 0.00 | 94 | 1018.4 |
| 20260503020503 | 14 | 242 | 0.0 | 1.6 | 0.00 | 0.00 | 0.00 | 94 | 1018.3 |
| 20260503020003 | 14 | 249 | 1.6 | 4.8 | 0.00 | 0.00 | 0.00 | 94 | 1018.3 |
| 20260503015503 | 14 | 252 | 1.6 | 4.8 | 0.00 | 0.00 | 0.00 | 94 | 1018.5 |
| 20260503015003 | 14 | 272 | 1.6 | 4.8 | 0.00 | 0.00 | 0.00 | 94 | 1018.5 |
| 20260503014503 | 14 | 270 | 1.6 | 4.8 | 0.00 | 0.00 | 0.00 | 94 | 1018.5 |
| 20260503014003 | 14 | 272 | 3.2 | 4.8 | 0.00 | 0.00 | 0.00 | 94 | 1018.8 |
| 20260503013503 | 14 | 276 | 3.2 | 4.8 | 0.00 | 0.00 | 0.00 | 93 | 1018.6 |
| 20260503013003 | 14 | 282 | 3.2 | 6.4 | 0.00 | 0.00 | 0.00 | 93 | 1018.7 |
| 20260503012503 | 14 | 289 | 3.2 | 6.4 | 0.00 | 0.00 | 0.00 | 93 | 1018.7 |
| 20260503012003 | 14 | 282 | 3.2 | 4.8 | 0.00 | 0.00 | 0.00 | 93 | 1018.5 |
| 20260503011503 | 15 | 279 | 3.2 | 4.8 | 0.00 | 0.00 | 0.00 | 92 | 1018.8 |
| 20260503011003 | 15 | 288 | 3.2 | 6.4 | 0.00 | 0.00 | 0.00 | 92 | 1018.7 |
| 20260503010503 | 15 | 289 | 4.8 | 6.4 | 0.00 | 0.00 | 0.00 | 92 | 1018.6 |
| 20260503010004 | 15 | 276 | 3.2 | 6.4 | 0.00 | 0.00 | 0.00 | 91 | 1018.9 |
| 20260503005503 | 15 | 264 | 3.2 | 4.8 | 0.00 | 0.00 | 0.00 | 90 | 1019.0 |
| 20260503005218 | 15 | 268 | 1.6 | 3.2 | 0.00 | 0.00 | 0.00 | 90 | 1018.9 |
| 20260503004717 | 15 | 275 | 1.6 | 4.8 | 0.00 | 0.00 | 0.00 | 90 | 1019.1 |
| 20260503004003 | 15 | 258 | 1.6 | 3.2 | 0.00 | 0.00 | 0.00 | 90 | 1018.9 |
| 20260503003503 | 15 | 255 | 1.6 | 3.2 | 0.00 | 0.00 | 0.00 | 91 | 1019.1 |
| 20260503003003 | 15 | 262 | 1.6 | 3.2 | 0.00 | 0.00 | 0.00 | 91 | 1019.2 |
| 20260503002503 | 15 | 258 | 1.6 | 3.2 | 0.00 | 0.00 | 0.00 | 91 | 1019.3 |
| 20260503002003 | 15 | 244 | 0.0 | 3.2 | 0.00 | 0.00 | 0.00 | 91 | 1019.3 |
| 20260503001503 | 15 | 253 | 0.0 | 1.6 | 0.00 | 0.00 | 0.00 | 91 | 1019.5 |
| 20260503001003 | 15 | 230 | 0.0 | 1.6 | 0.00 | 0.00 | 0.00 | 91 | 1019.5 |
| 20260503000503 | 15 | 239 | 0.0 | 1.6 | 0.00 | 0.00 | 0.00 | 91 | 1019.5 |
| 20260503000003 | 15 | 254 | 1.6 | 3.2 | 0.00 | 0.00 | 0.00 | 91 | 1019.4 |
| 20260502235503 | 15 | 258 | 1.6 | 3.2 | 0.00 | 0.00 | 0.00 | 91 | 1019.4 |
| 20260502235003 | 15 | 271 | 3.2 | 4.8 | 0.00 | 0.00 | 0.00 | 91 | 1019.4 |
| 20260502234503 | 15 | 268 | 3.2 | 4.8 | 0.00 | 0.00 | 0.00 | 91 | 1019.6 |
| 20260502234218 | 15 | 272 | 4.8 | 6.4 | 0.00 | 0.00 | 0.00 | 91 | 1019.6 |
| 20260502233503 | 15 | 274 | 3.2 | 6.4 | 0.00 | 0.00 | 0.00 | 91 | 1019.4 |
| 20260502233003 | 15 | 283 | 4.8 | 6.4 | 0.00 | 0.00 | 0.00 | 91 | 1019.5 |
| 20260502232503 | 15 | 296 | 6.4 | 9.7 | 0.00 | 0.00 | 0.00 | 91 | 1019.6 |
| 20260502232003 | 15 | 297 | 4.8 | 9.7 | 0.00 | 0.00 | 0.00 | 91 | 1019.6 |
| 20260502231503 | 15 | 280 | 4.8 | 9.7 | 0.00 | 0.00 | 0.00 | 90 | 1019.5 |
| 20260502231003 | 15 | 268 | 3.2 | 6.4 | 0.00 | 0.00 | 0.00 | 90 | 1019.6 |
| 20260502230003 | 15 | 279 | 4.8 | 6.4 | 0.00 | 0.00 | 0.00 | 90 | 1019.5 |